Luke Air Force Base, AZ

1:26 PM MST on August 25, 2016 (GMT -0700)
Luke Air Force Base

Weather History for KLUF - September, 2013

Change the Weather History Date:

Thursday, September 12, 2013

  Actual Average Record
Temperature  
Mean Temperature 84 °F -  
Max Temperature 98 °F 101 °F 112 °F (1971)
Min Temperature 71 °F 66 °F 50 °F (1985)
Cooling Degree Days 20    
Growing Degree Days 34 (Base 50)    
Moisture  
Dew Point 56 °F    
Average Humidity 41    
Maximum Humidity 69    
Minimum Humidity 18    
Precipitation  
Precipitation 0.00 in - - ()
Sea Level Pressure  
Sea Level Pressure 29.81 in    
Wind  
Wind Speed 7 mph (NNW)    
Max Wind Speed 24 mph    
Max Gust Speed 70 mph    
Visibility 10 miles    
Events      
Averages and records for this station are not official NWS values.
T = Trace of Precipitation, MM = Missing Value Source: NWS Daily Summary

Daily Weather History Graph

Daily Weather History Graph

Search for Another Location

Airport or City:

Trip Planner

Search our weather history database for the weather conditions in past years. The results will help you decide how hot, cold, wet, or windy it might be!

Date:

Astronomy

Sep. 12, 2013 Rise Set
Actual Time 6:11 AM MST 6:39 PM MST
Civil Twilight 5:46 AM MST 7:04 PM MST
Nautical Twilight 5:16 AM MST 7:33 PM MST
Astronomical Twilight 4:46 AM MST 8:03 PM MST
Moon 1:23 PM MST (9/12) 11:57 PM MST (9/12)
Length of Visible Light 13h 18m
Length of Day
12h 28m
Waxing Crescent, 51% of the Moon is Illuminated
Sep 12
Waxing Crescent
Sep 19
Full
Sep 26
Last Quarter
Oct 4
New
Oct 11
First Quarter

Hourly Weather History & Observations

Time (MST) Temp. Heat Index Dew Point Humidity Pressure Visibility Wind Dir Wind Speed Gust Speed Precip Events Conditions
12:56 AM 78.8 °F - 60.8 °F 54% 29.88 in 10.0 mi NNW 8.1 mph - N/A   Clear
1:56 AM 77.0 °F - 60.8 °F 57% 29.87 in 10.0 mi North 4.6 mph - N/A   Clear
2:56 AM 75.2 °F - 62.6 °F 65% 29.86 in 10.0 mi North 4.6 mph - N/A   Clear
3:56 AM 73.4 °F - 62.6 °F 69% 29.85 in 10.0 mi NNW 6.9 mph - N/A   Clear
4:56 AM 73.4 °F - 60.8 °F 65% 29.85 in 10.0 mi NNE 9.2 mph - N/A   Clear
5:25 AM 73.4 °F - 60.8 °F 65% 29.86 in 10.0 mi NNW 24.2 mph 70.2 mph N/A   Squalls
5:26 AM 71.6 °F - 60.8 °F 69% 29.86 in 10.0 mi Calm Calm - N/A   Clear
5:56 AM 71.6 °F - 60.8 °F 69% 29.86 in 10.0 mi North 3.5 mph - N/A   Clear
6:56 AM 73.4 °F - 59.0 °F 61% 29.88 in 10.0 mi NW 8.1 mph - N/A   Clear
7:56 AM 78.8 °F - 59.0 °F 51% 29.89 in 10.0 mi NNW 5.8 mph - N/A   Clear
8:56 AM 84.2 °F 83.8 °F 59.0 °F 42% 29.90 in 10.0 mi NNW 6.9 mph - N/A   Clear
9:56 AM 87.8 °F 86.1 °F 55.4 °F 33% 29.89 in 10.0 mi NNE 6.9 mph - N/A   Clear
10:56 AM 91.4 °F 89.4 °F 55.4 °F 29% 29.87 in 10.0 mi Variable 5.8 mph - N/A   Clear
11:56 AM 93.2 °F 90.8 °F 53.6 °F 26% 29.85 in 10.0 mi Variable 2.3 mph - N/A   Clear
12:56 PM 95.0 °F 92.7 °F 53.6 °F 25% 29.82 in 10.0 mi North 1.2 mph - N/A   Clear
1:56 PM 95.0 °F - 51.8 °F 23% 29.79 in 10.0 mi Variable 3.5 mph - N/A   Clear
2:56 PM 96.8 °F - 50.0 °F 20% 29.76 in 10.0 mi WSW 4.6 mph - N/A   Clear
3:56 PM 98.6 °F - 48.2 °F 18% 29.74 in 10.0 mi Variable 4.6 mph - N/A   Clear
4:56 PM 98.6 °F - 50.0 °F 19% 29.72 in 10.0 mi West 2.3 mph - N/A   Clear
5:56 PM 98.6 °F - 48.2 °F 18% 29.72 in 10.0 mi West 5.8 mph - N/A   Clear
6:56 PM 95.0 °F 92.7 °F 53.6 °F 25% 29.72 in 10.0 mi NW 5.8 mph - N/A   Clear
7:56 PM 91.4 °F 89.4 °F 55.4 °F 29% 29.73 in 10.0 mi WNW 6.9 mph - N/A   Clear
8:56 PM 89.6 °F 87.3 °F 53.6 °F 29% 29.74 in 10.0 mi WNW 9.2 mph - N/A   Clear
9:56 PM 86.0 °F 84.5 °F 55.4 °F 35% 29.75 in 10.0 mi NW 8.1 mph - N/A   Clear
10:56 PM 86.0 °F 84.5 °F 55.4 °F 35% 29.75 in 10.0 mi NNW 9.2 mph - N/A   Clear
11:56 PM 84.2 °F 83.0 °F 55.4 °F 37% 29.75 in 10.0 mi NNW 6.9 mph - N/A   Clear